User: anonymous
Location: Mentone
(34.5413°N, 85.5351°W)
Time: 04:08:21
(UTC-05:00)
Language:

Tiros 1 despin weight - Orbit

View from above orbital plane
View from above orbital plane
View from above satellite
View from above satellite

Ground track
Ground track

The orbit data is extracted from the following two-line orbital elements,

1 00115U 60002D   14206.40900491  .00000176  00000-0  50847-4 0  4172
2 00115 048.1656 180.2534 0036080 126.3545 008.8971 14.80622761893308
Epoch (UTC): 25 July 2014 09:48:58
Eccentricity: 0.0036080
inclination: 48.1656°
perigee height: 602 km
apogee height: 652 km
right ascension of ascending node: 180.2534°
argument of perigee: 126.3545°
revolutions per day: 14.80622761
mean anomaly at epoch: 8.8971°
orbit number at epoch: 89330

The dashed part of the orbit path shows where the satellite is in the earth's shadow,  

DLR